Location: Regensburg
(49.0167°N, 12.1000°E)
Time: 06:01:06
(UTC+02:00)

Envisat - Visible Passes

Search period start: 29 March 2020 00:00
Search period end: 08 April 2020 01:00
Orbit: 764 x 766 km, 98.1° (Epoch: 28 March)

Date Brightness Start Highest point End Pass type
(mag) Time Alt. Az. Time Alt. Az. Time Alt. Az.
30 Mar 6.4 06:20:54 10° NE 06:23:26 14° E 06:25:58 10° ESE visible
31 Mar 6.2 20:21:58 10° WSW 20:24:39 14° W 20:27:20 10° NW visible
02 Apr 6.7 06:10:43 10° ENE 06:11:57 11° E 06:13:12 10° E visible
05 Apr 6.6 20:38:25 10° W 20:39:02 10° W 20:39:40 10° WNW visible
